DateTimeUTC,F1_A11,F1_S11,BsB_S11,BsG_S11,BsR_S11,BbsB_S11,BbsG_S11,BbsR_S11,BaB_A11,BaG_A11,BaR_A11,T_S11,U_S11,P_S11,T1_A11
2020-10-07T00:00:00Z,00000380,20000600,,,,,,,,,,25.2,04.4,0663.7,31.1
2020-10-07T00:01:00Z,00000380,20000600,,,,,,,,,,25.2,04.4,0663.7,31.0
2020-10-07T00:02:00Z,00000380,20000600,,,,,,,,,,25.2,04.4,0663.7,31.0
2020-10-07T00:03:00Z,00000380,60000600,,,,,,,,,,25.2,04.4,0663.6,31.0
2020-10-07T00:04:00Z,00000380,40000600,0001.22,0000.47,0000.48,-000.26,0000.49,0000.20,-000.10,0000.20,-000.07,25.0,04.5,0664.6,31.0
2020-10-07T00:05:00Z,00000380,00000600,0001.80,0000.83,0000.55,-000.53,0000.43,0000.57,0000.07,-000.07,-000.06,24.9,04.5,0664.7,31.0
2020-10-07T00:06:00Z,00000380,00000600,0001.53,0001.02,0000.49,-000.04,-000.06,0000.22,0000.09,0000.13,0000.12,24.9,04.5,0664.6,31.0
2020-10-07T00:07:00Z,00000380,00000600,0000.95,0000.61,0000.47,-000.78,0000.01,-000.04,-000.01,-000.07,0000.08,25.0,04.4,0664.5,31.1
2020-10-07T00:08:00Z,00000380,00000600,0001.58,0000.50,0000.96,-000.33,-000.08,0000.17,0000.17,0000.12,0000.00,25.0,04.4,0664.6,31.1
2020-10-07T00:09:00Z,00000380,00000600,0000.55,0000.53,0000.54,-000.19,0000.08,0000.21,0000.07,0000.17,0000.19,25.1,04.4,0664.9,31.1
2020-10-07T00:10:00Z,00000380,00000600,0000.71,0000.44,0000.73,0000.15,0000.21,0000.13,0000.15,-000.06,-000.12,25.1,04.4,0664.8,31.1
2020-10-07T00:11:00Z,00000380,00000600,0001.21,0000.65,0000.02,-000.34,-000.08,0000.14,-000.13,0000.17,0000.17,25.1,04.3,0664.7,31.1
2020-10-07T00:12:00Z,00000380,00000600,0001.00,0000.98,0000.14,-000.51,0000.12,-000.05,0000.12,-000.00,-000.03,25.0,04.3,0664.8,31.1
2020-10-07T00:13:00Z,00000380,00000600,0002.59,0001.14,0000.21,0000.51,-000.20,0000.45,0000.21,0000.21,0000.16,25.0,04.3,0664.6,31.0
2020-10-07T00:14:00Z,00000380,00000600,0000.98,0000.68,-000.03,-000.77,0000.28,0000.25,0000.04,0000.03,-000.03,25.0,04.4,0664.7,31.0
2020-10-07T00:15:00Z,00000380,00000600,-000.32,0000.40,0000.07,0000.10,0000.27,0000.26,0000.08,-000.01,0000.10,24.9,04.4,0664.6,31.0
2020-10-07T00:16:00Z,00000380,00000600,0000.92,0001.09,0000.27,-000.39,-000.18,0000.44,0000.04,0000.16,0000.03,24.9,04.5,0664.5,31.0
2020-10-07T00:17:00Z,00000380,00000600,0000.68,0000.50,0000.35,-000.87,0000.54,0000.12,0000.17,0000.16,0000.08,24.9,04.5,0664.4,31.0
2020-10-07T00:18:00Z,00000380,00000600,0000.49,0000.59,0000.22,0000.06,0000.32,0000.18,0000.03,0000.06,0000.06,24.9,04.6,0664.7,31.0
2020-10-07T00:19:00Z,00000380,00000600,0001.01,0000.37,0000.27,0000.01,0000.10,0000.55,-000.07,-000.14,-000.09,24.8,04.6,0664.5,31.0
2020-10-07T00:20:00Z,00000380,00000600,0000.73,0000.95,0000.73,-000.03,0000.06,0000.42,0000.13,-000.07,0000.11,24.8,04.6,0664.6,31.0
2020-10-07T00:21:00Z,00000380,00000600,0000.94,0000.32,0000.26,-000.43,0000.24,0000.26,0000.11,0000.22,-000.06,24.9,04.7,0664.7,31.0
2020-10-07T00:22:00Z,00000380,00000600,0001.51,0000.39,0000.18,0000.62,-000.02,0000.00,-000.01,0000.02,0000.14,24.9,04.8,0664.7,31.1
2020-10-07T00:23:00Z,00000380,00000600,0001.34,0001.02,0000.54,0000.51,0000.34,0000.61,-000.06,0000.07,0000.04,24.9,04.7,0664.8,31.1
2020-10-07T00:24:00Z,00000380,00000600,0001.70,0000.43,-000.22,-000.28,0000.54,0000.35,0000.04,-000.03,-000.05,25.0,04.8,0664.7,31.1
2020-10-07T00:25:00Z,00000380,00000600,-000.65,0000.29,0000.53,0000.28,0000.06,0000.20,0000.11,0000.16,0000.06,25.0,04.7,0664.7,31.1
2020-10-07T00:26:00Z,00000380,00000600,0000.30,0000.60,-000.05,0000.18,0000.36,0000.17,0000.05,-000.12,0000.15,25.0,04.8,0664.8,31.1
2020-10-07T00:27:00Z,00000380,00000600,0001.13,-000.06,0000.46,0000.39,0000.07,-000.19,0000.03,0000.14,-000.09,25.1,04.8,0664.9,31.1
2020-10-07T00:28:00Z,00000380,00000600,0000.28,0000.14,0000.48,-000.34,0000.11,0000.22,0000.09,-000.11,0000.14,25.1,04.7,0664.6,31.1
2020-10-07T00:29:00Z,00000380,00000600,0000.59,0000.50,-000.04,-000.44,0000.14,0000.30,-000.12,0000.05,-000.03,25.1,04.7,0664.6,31.1
2020-10-07T00:30:00Z,00000380,00000600,-000.04,0000.32,0000.59,-000.12,0000.33,0000.12,0000.18,0000.08,0000.10,25.1,04.7,0664.7,31.1
2020-10-07T00:31:00Z,00000380,00000600,0000.50,0000.53,0000.22,0000.23,0000.45,0000.65,-000.04,0000.09,-000.04,25.1,04.7,0664.6,31.1
2020-10-07T00:32:00Z,00000380,00000600,0000.79,0000.57,0000.04,-000.19,0000.31,-000.06,0000.06,0000.04,0000.00,25.1,04.7,0664.4,31.0
2020-10-07T00:33:00Z,00000380,00000600,0000.85,0000.23,0000.11,0000.16,0000.32,0000.29,-000.00,0000.00,0000.04,25.0,04.7,0664.4,31.0
2020-10-07T00:34:00Z,00000380,00000600,0000.33,0000.26,0000.28,-000.26,0000.34,0000.39,0000.02,-000.13,-000.03,25.0,04.7,0664.7,31.0
2020-10-07T00:35:00Z,00000380,00000600,0000.75,0000.55,0000.01,-000.89,0000.71,-000.13,-000.07,0000.02,-000.06,25.0,04.7,0664.6,31.0
2020-10-07T00:36:00Z,00000380,00000600,0000.66,0000.02,0000.35,-000.47,0000.18,0000.16,0000.03,-000.04,-000.00,25.0,04.7,0664.6,31.1
2020-10-07T00:37:00Z,00000380,00000600,0000.32,0000.07,0000.68,0000.01,0000.19,0000.21,0000.07,0000.07,0000.18,25.0,04.7,0664.6,31.1
2020-10-07T00:38:00Z,00000380,00000600,0000.49,0000.37,0000.78,-000.05,0000.46,0000.40,-000.04,0000.03,-000.13,25.0,04.8,0664.5,31.1
2020-10-07T00:39:00Z,00000380,00000600,0000.32,0000.15,-000.63,-000.45,0000.03,0000.06,0000.03,0000.04,0000.10,25.1,04.8,0664.6,31.1
2020-10-07T00:40:00Z,00000380,00000600,-000.01,0000.21,0000.02,-000.13,-000.07,0000.40,0000.06,0000.03,-000.01,25.1,04.8,0664.7,31.1
2020-10-07T00:41:00Z,00000380,00000600,0001.20,0000.23,-000.63,-000.26,0000.50,0000.43,0000.00,0000.06,0000.13,25.1,04.7,0664.9,31.1
2020-10-07T00:42:00Z,00000380,00000600,0000.66,0000.16,0000.73,-000.10,0000.45,0000.56,0000.04,0000.04,-000.15,25.1,04.7,0664.6,31.1
2020-10-07T00:43:00Z,00000380,00000600,0001.12,0000.27,0000.19,-001.05,0000.29,0000.47,-000.03,0000.04,0000.14,25.1,04.7,0664.7,31.1
2020-10-07T00:44:00Z,00000380,00000600,-000.17,0000.04,0000.41,-000.41,0000.06,0000.27,0000.20,0000.17,-000.07,25.1,04.7,0664.5,31.1
2020-10-07T00:45:00Z,00000380,00000600,-000.00,0000.18,0000.56,-000.57,0000.09,0000.71,-000.04,-000.09,0000.10,25.1,04.7,0664.8,31.0
2020-10-07T00:46:00Z,00000380,00000600,0000.85,-000.05,0000.48,-000.30,0000.00,0000.55,0000.03,0000.02,-000.00,25.0,04.7,0664.9,31.0
2020-10-07T00:47:00Z,00000380,00000600,0000.89,0000.70,0000.41,-000.33,0000.44,0000.64,-000.04,-000.07,0000.08,25.0,04.7,0665.0,31.0
2020-10-07T00:48:00Z,00000380,00000600,0000.54,-000.05,0000.10,-000.63,0000.54,0000.59,0000.12,0000.15,0000.05,25.0,04.7,0664.7,31.0
2020-10-07T00:49:00Z,00000380,00000600,-000.06,0000.46,0000.11,-000.71,0000.29,0000.14,-000.00,-000.08,-000.06,25.0,04.8,0664.9,31.0
2020-10-07T00:50:00Z,00000380,00000600,0000.37,-000.36,0000.17,-000.02,0000.44,0000.58,-000.14,-000.17,-000.14,25.0,04.7,0664.9,31.0
2020-10-07T00:51:00Z,00000380,00000600,0000.87,0000.35,0000.06,-000.23,0000.03,0000.51,0000.09,0000.04,0000.01,25.0,04.8,0664.9,31.0
2020-10-07T00:52:00Z,00000380,00000600,0000.58,-000.00,0000.22,-000.69,0000.56,0000.29,0000.01,0000.08,0000.05,25.0,04.8,0665.0,31.1
2020-10-07T00:53:00Z,00000380,00000600,0000.21,-000.01,0000.19,-000.43,0000.42,0000.42,0000.10,0000.13,0000.08,25.0,04.8,0665.0,31.1
2020-10-07T00:54:00Z,00000380,00000600,0000.49,0000.51,0000.13,-000.44,-000.11,0000.02,-000.09,-000.05,-000.01,25.1,04.8,0665.2,31.1
2020-10-07T00:55:00Z,00000380,00000600,-000.29,0000.54,0000.10,-000.33,0000.17,0000.32,-000.03,-000.05,-000.01,25.1,04.7,0665.2,31.1
2020-10-07T00:56:00Z,00000380,00000600,-000.28,0000.35,0000.53,-000.39,0000.11,0000.86,0000.10,0000.11,0000.08,25.2,04.8,0665.1,31.2
2020-10-07T00:57:00Z,00000380,40000600,,,,,,,,,,25.2,04.8,0665.4,31.1
2020-10-07T00:58:00Z,00000380,60000600,,,,,,,,,,25.2,04.6,0664.5,31.1
2020-10-07T00:59:00Z,00000380,20000600,,,,,,,,,,25.3,04.6,0664.4,31.1
2020-10-07T01:00:00Z,00000380,20000600,,,,,,,,,,25.3,04.4,0664.3,31.1
2020-10-07T01:01:00Z,00000380,20000600,,,,,,,,,,25.3,04.4,0664.2,31.0
2020-10-07T01:02:00Z,00000380,20000600,,,,,,,,,,25.3,04.4,0664.2,31.0
2020-10-07T01:03:00Z,00000380,60000600,,,,,,,,,,25.3,04.4,0664.2,31.0
2020-10-07T01:04:00Z,00000380,40000600,0001.27,0000.28,0000.14,0000.55,0000.06,-000.30,-000.02,-000.03,-000.19,25.1,04.7,0665.1,31.0
2020-10-07T01:05:00Z,00000380,00000600,-000.10,0000.31,0000.03,-000.64,-000.13,0000.03,0000.08,0000.05,0000.07,25.1,04.8,0665.0,31.0
2020-10-07T01:06:00Z,00000380,00000600,0000.86,0000.74,0000.02,0000.32,0000.36,-000.05,-000.04,0000.04,0000.06,25.1,04.8,0665.2,31.1
2020-10-07T01:07:00Z,00000380,00000600,0000.04,0000.32,-000.33,0000.41,0000.13,0000.23,-000.07,-000.04,0000.10,25.1,04.9,0665.2,31.1
2020-10-07T01:08:00Z,00000380,00000600,0000.79,0000.30,-000.10,-000.41,0000.43,-000.20,0000.02,-000.03,-000.04,25.1,04.8,0665.2,31.1
2020-10-07T01:09:00Z,00000380,00000600,-000.31,0000.49,0000.81,0000.25,-000.03,0000.01,-000.06,-000.01,-000.01,25.1,04.8,0665.2,31.1
2020-10-07T01:10:00Z,00000380,00000600,0000.57,0000.50,0000.30,0000.43,0000.42,-000.25,0000.12,0000.31,0000.21,25.1,04.9,0664.9,31.1
2020-10-07T01:11:00Z,00000380,00000600,0001.15,0000.29,-000.15,-000.38,0000.52,0000.03,0000.13,0000.06,0000.07,25.1,04.9,0664.9,31.1
2020-10-07T01:12:00Z,00000380,00000600,0001.21,0000.27,-000.55,0000.33,0000.41,-000.21,0000.06,-000.00,-000.02,25.1,04.8,0665.3,31.0
2020-10-07T01:13:00Z,00000380,00000600,0000.74,0000.26,0000.31,0000.39,0000.37,0000.07,-000.01,-000.03,-000.19,25.1,04.8,0665.2,31.0
2020-10-07T01:14:00Z,00000380,00000600,-000.57,-000.00,0000.26,0000.02,0000.26,0000.06,0000.03,-000.01,0000.18,25.0,04.8,0665.3,31.0
2020-10-07T01:15:00Z,00000380,00000600,0000.55,0000.43,-000.08,-000.32,-000.04,-000.10,0000.05,-000.10,0000.00,25.0,04.9,0665.0,31.0
2020-10-07T01:16:00Z,00000380,00000600,0000.51,0000.10,-000.34,-000.11,0000.38,-000.06,-000.03,0000.15,-000.04,25.0,04.9,0665.2,31.0
2020-10-07T01:17:00Z,00000380,00000600,-000.29,0000.32,-000.04,-000.08,-000.15,0000.09,-000.15,-000.09,0000.02,25.0,04.9,0665.0,31.0
2020-10-07T01:18:00Z,00000380,00000600,-000.25,0000.33,0000.35,0000.26,0000.37,0000.21,0000.15,-000.04,0000.11,24.9,05.0,0664.9,31.0
2020-10-07T01:19:00Z,00000380,00000600,0001.47,0000.62,0000.70,-000.43,0000.12,-000.12,-000.02,0000.06,-000.02,24.9,05.0,0665.1,31.0
2020-10-07T01:20:00Z,00000380,00000600,0000.23,0000.20,-000.27,-000.20,-000.07,-000.09,0000.07,-000.14,-000.18,24.9,05.0,0665.1,31.0
2020-10-07T01:21:00Z,00000380,00000600,0000.45,0000.56,-000.02,-000.01,0000.15,0000.54,-000.03,0000.02,-000.03,24.9,05.0,0665.0,31.0
2020-10-07T01:22:00Z,00000380,00000600,-000.48,0000.33,-000.00,0001.81,0000.45,-000.12,-000.15,0000.11,0000.06,25.0,05.0,0665.0,31.1
2020-10-07T01:23:00Z,00000380,00000600,0000.63,-000.04,0000.18,0000.04,-000.29,0000.19,0000.16,0000.04,0000.14,25.0,05.0,0665.1,31.1
2020-10-07T01:24:00Z,00000380,00000600,0000.59,0000.30,0000.31,-000.02,0000.28,0000.46,-000.08,0000.07,-000.11,25.0,05.0,0665.0,31.1
2020-10-07T01:25:00Z,00000380,00000600,0001.01,0000.52,-000.15,0000.62,0000.23,-000.20,0000.03,-000.08,0000.10,25.1,05.0,0665.0,31.1
2020-10-07T01:26:00Z,00000380,00000600,0000.27,0000.22,-000.05,0000.21,0000.14,0000.03,0000.10,0000.14,0000.05,25.0,05.0,0664.9,31.1
2020-10-07T01:27:00Z,00000380,00000600,0000.58,0000.35,0000.24,0000.35,-000.09,0000.74,0000.20,0000.03,0000.04,25.0,05.0,0665.1,31.0
2020-10-07T01:28:00Z,00000380,00000600,-000.86,0001.14,-000.27,-000.25,0000.41,0000.30,-000.12,0000.02,-000.07,25.0,04.9,0665.1,31.0
2020-10-07T01:29:00Z,00000380,00000600,0000.99,0000.71,0000.07,0000.36,0000.50,0000.05,0000.03,0000.00,0000.11,24.9,04.9,0664.9,31.0
2020-10-07T01:30:00Z,00000380,00000600,-000.37,0000.08,0000.07,-000.36,0000.08,-000.36,-000.02,-000.10,0000.03,24.9,04.9,0665.3,31.0
2020-10-07T01:31:00Z,00000380,00000600,0000.10,0000.79,-000.00,0000.35,0000.36,0000.00,0000.11,0000.08,-000.11,24.9,05.0,0664.9,31.0
2020-10-07T01:32:00Z,00000380,00000600,0001.32,0000.77,0000.27,-000.07,0000.25,0000.25,0000.04,-000.02,0000.16,24.9,04.9,0664.6,31.0
2020-10-07T01:33:00Z,00000380,00000600,0000.31,0000.60,0000.59,-000.24,0000.18,0000.40,-000.05,0000.10,-000.03,24.8,05.1,0664.7,31.0
2020-10-07T01:34:00Z,00000380,00000600,0000.68,0000.39,0000.38,-000.27,0000.14,-000.08,-000.07,-000.19,-000.15,24.8,05.1,0665.0,31.0
2020-10-07T01:35:00Z,00000380,00000600,-000.15,0000.46,0000.27,-000.05,-000.01,0000.31,-000.05,0000.01,0000.07,24.8,05.0,0664.7,31.0
2020-10-07T01:36:00Z,00000380,00000600,0000.28,-000.06,-000.22,0000.34,-000.04,0000.11,0000.05,0000.01,-000.05,24.8,05.1,0664.7,31.0
2020-10-07T01:37:00Z,00000380,00000600,-000.15,0000.30,-000.14,0000.16,-000.05,-000.12,0000.03,0000.03,0000.07,24.9,05.0,0664.9,31.0
2020-10-07T01:38:00Z,00000380,00000600,-000.45,0000.58,0000.10,-000.23,-000.27,0000.06,-000.15,-000.06,-000.15,24.9,04.9,0665.0,31.1
2020-10-07T01:39:00Z,00000380,00000600,0000.89,0000.53,0000.25,0000.48,0000.44,0000.25,0000.16,0000.08,0000.18,25.0,05.0,0665.0,31.1
2020-10-07T01:40:00Z,00000380,00000600,-000.35,0000.60,0000.31,0000.23,0000.25,0000.21,0000.06,-000.02,-000.01,25.0,05.0,0664.9,31.1
2020-10-07T01:41:00Z,00000380,00000600,0000.64,0000.57,-000.01,-000.12,-000.04,0000.02,0000.03,0000.12,-000.08,25.0,05.0,0665.3,31.1
2020-10-07T01:42:00Z,00000380,00000600,-000.44,0000.42,-000.03,0001.22,-000.02,-000.03,0000.04,0000.23,0000.23,25.1,05.0,0664.9,31.1
2020-10-07T01:43:00Z,00000380,00000600,0000.00,0000.36,-000.08,-000.02,0000.38,0000.01,0000.10,-000.09,-000.01,25.1,05.1,0664.8,31.1
2020-10-07T01:44:00Z,00000380,00000600,-000.29,0000.16,-000.01,-000.28,0000.30,0000.05,0000.03,0000.17,-000.00,25.0,05.1,0665.2,31.1
2020-10-07T01:45:00Z,00000380,00000600,0002.11,0000.67,0000.02,-000.44,0000.01,0000.27,-000.09,-000.16,0000.13,25.0,05.1,0665.2,31.0
2020-10-07T01:46:00Z,00000380,00000600,0001.48,0000.04,-000.27,-000.09,0000.21,0000.03,0000.07,-000.04,-000.07,25.0,05.0,0665.1,31.0
2020-10-07T01:47:00Z,00000380,00000600,0000.34,0000.69,0000.01,0000.45,-000.07,0000.13,0000.08,0000.04,0000.17,25.0,05.0,0665.0,31.0
2020-10-07T01:48:00Z,00000380,00000600,0000.34,0000.07,-000.06,0000.18,0000.39,0000.22,0000.04,-000.04,-000.09,24.9,04.9,0665.0,31.0
2020-10-07T01:49:00Z,00000380,00000600,-000.09,0000.58,0000.11,-000.36,0000.46,-000.09,-000.04,-000.02,-000.16,24.9,04.9,0665.1,31.0
2020-10-07T01:50:00Z,00000380,00000600,0000.68,-000.14,0000.20,0000.72,0000.12,0000.08,-000.12,-000.02,0000.09,24.9,05.0,0664.9,31.0
2020-10-07T01:51:00Z,00000380,00000600,0000.86,0000.35,0000.20,0000.80,-000.00,-000.10,0000.00,-000.09,-000.07,24.9,04.9,0665.0,31.0
2020-10-07T01:52:00Z,00000380,00000600,0000.86,0000.15,-000.05,0000.43,0000.36,0000.16,0000.06,0000.21,0000.15,24.9,05.0,0665.0,31.1
2020-10-07T01:53:00Z,00000380,00000600,0001.07,0000.43,-000.01,0000.39,0000.31,-000.27,0000.06,-000.06,-000.07,25.0,05.0,0665.1,31.1
2020-10-07T01:54:00Z,00000380,00000600,0001.19,0000.08,-000.39,-000.51,0000.10,-000.19,-000.02,0000.24,0000.05,25.0,05.0,0664.9,31.1
2020-10-07T01:55:00Z,00000380,00000600,0000.39,0000.33,0000.34,-000.76,-000.00,0000.31,0000.11,-000.08,-000.03,25.0,05.2,0664.6,31.1
2020-10-07T01:56:00Z,00000380,00000600,0000.54,0000.40,-000.32,-000.63,0000.15,-000.05,0000.10,0000.18,0000.28,25.0,05.2,0664.9,31.1
2020-10-07T01:57:00Z,00000380,40000600,,,,,,,,,,25.1,05.0,0664.9,31.1
2020-10-07T01:58:00Z,00000380,60000600,,,,,,,,,,25.0,04.9,0664.2,31.0
2020-10-07T01:59:00Z,00000380,20000600,,,,,,,,,,25.1,05.0,0664.2,31.0
2020-10-07T02:00:00Z,00000380,20000600,,,,,,,,,,25.1,04.9,0664.2,31.0
2020-10-07T02:01:00Z,00000380,20000600,,,,,,,,,,25.1,04.8,0664.2,31.0
2020-10-07T02:02:00Z,00000380,20000600,,,,,,,,,,25.1,04.8,0664.1,31.0
2020-10-07T02:03:00Z,00000380,60000600,,,,,,,,,,25.1,04.8,0664.1,31.0
2020-10-07T02:04:00Z,00000380,40000600,0001.06,0000.27,0000.07,0000.45,0000.08,0000.44,-000.14,-000.18,-000.17,24.9,05.0,0665.1,31.0
2020-10-07T02:05:00Z,00000380,00000600,0000.55,-000.31,0000.24,0000.08,-000.24,-000.17,-000.01,-000.05,-000.15,24.9,05.0,0665.1,31.0
2020-10-07T02:06:00Z,00000380,00000600,0000.46,0000.36,0000.17,0000.21,0000.27,-000.08,0000.04,0000.12,0000.09,24.9,05.0,0665.1,31.0
2020-10-07T02:07:00Z,00000380,00000600,-001.33,0000.15,0000.25,-000.48,0000.36,0000.07,-000.06,-000.03,-000.10,24.9,05.0,0665.1,31.1
2020-10-07T02:08:00Z,00000380,00000600,-001.53,-000.16,0000.47,-000.46,0000.24,0000.12,-000.06,-000.07,0000.09,24.9,05.0,0665.3,31.1
2020-10-07T02:09:00Z,00000380,00000600,0000.20,0000.11,-000.15,-000.12,0000.07,-000.21,0000.06,0000.07,0000.02,25.0,04.9,0665.3,31.1
2020-10-07T02:10:00Z,00000380,00000600,-000.85,0000.11,0000.17,-000.18,-000.20,-000.44,0000.04,0000.07,-000.03,25.0,04.9,0665.3,31.1
2020-10-07T02:11:00Z,00000380,00000600,0000.22,-000.16,0000.14,0000.28,-000.10,-000.11,-000.14,-000.10,0000.09,25.0,04.8,0664.8,31.1
2020-10-07T02:12:00Z,00000380,00000600,-000.51,0000.28,-000.20,-000.05,-000.16,-000.23,0000.27,0000.28,0000.20,25.0,04.8,0665.1,31.1
2020-10-07T02:13:00Z,00000380,00000600,-000.06,-000.14,-000.10,0000.05,0000.23,0000.32,-000.07,-000.11,-000.13,25.0,04.8,0665.1,31.1
2020-10-07T02:14:00Z,00000380,00000600,0001.19,0000.75,0000.30,-000.03,0000.19,0000.22,0000.14,0000.16,0000.04,25.0,04.8,0665.1,31.0
2020-10-07T02:15:00Z,00000380,00000600,0000.27,-000.26,0000.28,-000.72,-000.08,-000.18,0000.06,0000.07,-000.01,25.0,04.8,0665.2,31.0
2020-10-07T02:16:00Z,00000380,00000600,0000.20,0000.48,0000.51,0000.37,-000.23,-000.00,0000.03,-000.05,0000.01,25.0,04.8,0665.1,31.0
2020-10-07T02:17:00Z,00000380,00000600,0001.83,0000.18,0000.07,-000.85,-000.07,0000.53,0000.07,0000.09,0000.10,24.9,05.0,0665.0,31.0
2020-10-07T02:18:00Z,00000380,00000600,0000.11,0000.54,0000.71,-000.01,-000.18,0000.03,-000.05,-000.08,-000.02,24.9,04.9,0665.2,31.0
2020-10-07T02:19:00Z,00000380,00000600,-000.08,0000.30,0000.39,-000.03,-000.02,0000.06,0000.04,-000.11,0000.05,24.9,05.0,0665.3,31.0
2020-10-07T02:20:00Z,00000380,00000600,-000.10,0000.34,-000.19,0000.18,0000.02,-000.59,-000.19,-000.06,-000.13,24.9,05.0,0665.1,31.0
2020-10-07T02:21:00Z,00000380,00000600,-000.58,0000.45,0000.13,0000.17,-000.02,-000.12,0000.11,0000.03,-000.10,24.9,05.1,0665.3,31.0
2020-10-07T02:22:00Z,00000380,00000600,-000.65,0000.68,0000.34,-000.03,0000.02,0000.08,-000.06,0000.07,0000.22,24.9,05.1,0665.1,31.1
2020-10-07T02:23:00Z,00000380,00000600,0000.10,0000.19,0000.17,0000.58,0000.09,-000.31,0000.09,-000.01,0000.01,25.0,05.0,0665.1,31.1
2020-10-07T02:24:00Z,00000380,00000600,-000.22,0000.64,0000.24,-000.42,-000.15,-000.18,0000.01,0000.20,-000.01,25.0,05.0,0665.0,31.1
2020-10-07T02:25:00Z,00000380,00000600,-001.58,-000.10,-000.11,-000.14,-000.21,0000.08,0000.08,-000.04,-000.07,25.0,04.9,0665.2,31.1
2020-10-07T02:26:00Z,00000380,00000600,0000.04,0000.37,0000.18,-000.28,-000.30,0000.45,0000.04,-000.04,0000.18,25.0,04.9,0665.1,31.1
2020-10-07T02:27:00Z,00000380,00000600,0000.05,-000.01,0000.70,0000.53,-000.08,-000.04,-000.05,0000.00,-000.08,25.0,04.8,0665.3,31.1
2020-10-07T02:28:00Z,00000380,00000600,0000.48,0000.48,0000.06,0000.46,0000.22,0000.06,0000.02,0000.04,0000.02,25.0,04.8,0665.2,31.0
2020-10-07T02:29:00Z,00000380,00000600,0000.34,0000.13,0000.92,-000.71,-000.07,0000.20,-000.12,0000.03,-000.01,24.9,04.8,0665.3,31.0
2020-10-07T02:30:00Z,00000380,00000600,0000.22,0000.39,-000.18,-000.21,0000.17,-000.48,0000.29,0000.07,0000.00,24.9,04.8,0665.4,31.0
2020-10-07T02:31:00Z,00000380,00000600,0000.32,0000.42,0000.33,0000.17,-000.11,-000.05,-000.05,0000.04,0000.06,24.9,04.8,0665.3,31.0
2020-10-07T02:32:00Z,00000380,00000600,0000.92,0000.46,0000.29,-000.19,0000.27,0000.21,0000.06,-000.04,0000.01,24.9,04.9,0665.3,31.0
2020-10-07T02:33:00Z,00000380,00000600,0000.17,0000.80,0000.13,0000.64,0000.05,0000.08,-000.09,-000.01,-000.12,24.8,04.8,0665.4,31.0
2020-10-07T02:34:00Z,00000380,00000600,-000.04,0000.08,0000.21,-000.34,-000.11,-000.05,0000.08,-000.14,-000.03,24.8,04.7,0665.4,31.0
2020-10-07T02:35:00Z,00000380,00000600,0000.35,0000.24,-000.02,-000.55,-000.08,-000.12,-000.20,-000.02,0000.00,24.8,04.7,0665.5,31.0
2020-10-07T02:36:00Z,00000380,00000600,0000.91,0000.02,0000.64,0000.36,-000.11,0000.09,0000.15,-000.17,-000.10,24.8,04.8,0665.6,31.0
2020-10-07T02:37:00Z,00000380,00000600,0000.56,0000.13,-000.22,-000.11,-000.05,0000.14,-000.00,0000.28,0000.21,24.9,04.8,0665.5,31.1
2020-10-07T02:38:00Z,00000380,00000600,0000.44,0000.47,-000.02,0000.48,0000.14,-000.02,-000.05,0000.07,0000.05,24.9,04.7,0665.7,31.1
2020-10-07T02:39:00Z,00000380,00000600,0000.85,0000.45,0000.26,0000.00,0000.14,0000.09,0000.14,0000.01,-000.05,25.0,04.8,0665.5,31.1
2020-10-07T02:40:00Z,00000380,00000600,-000.49,0000.44,0000.09,0000.19,0000.20,-000.19,-000.03,0000.12,0000.04,25.0,04.8,0665.6,31.1
2020-10-07T02:41:00Z,00000380,00000600,0000.64,-000.11,0000.07,0000.05,-000.15,-000.39,0000.17,0000.05,0000.14,25.0,04.8,0665.7,31.1
2020-10-07T02:42:00Z,00000380,00000600,-000.26,-000.05,0000.10,-000.12,-000.34,-000.17,0000.04,0000.13,0000.12,25.0,04.8,0665.5,31.0
2020-10-07T02:43:00Z,00000380,00000600,-001.14,0000.63,0000.07,0000.27,-000.32,-000.04,0000.02,-000.05,-000.10,24.9,04.8,0665.6,31.0
2020-10-07T02:44:00Z,00000380,00000600,0001.36,0000.94,-000.10,0000.02,0000.09,-000.02,0000.02,-000.02,0000.16,24.9,04.9,0665.7,31.0
2020-10-07T02:45:00Z,00000380,00000600,-000.36,-000.06,0000.07,-000.23,0000.20,0000.07,-000.10,0000.00,-000.11,24.9,04.9,0665.5,31.0
2020-10-07T02:46:00Z,00000380,00000600,0000.56,0000.21,0000.03,-000.77,-000.34,0000.03,0000.18,0000.09,0000.07,24.9,04.9,0665.5,31.0
2020-10-07T02:47:00Z,00000380,00000600,0000.58,0000.77,-000.04,0000.59,0000.28,-000.22,-000.04,-000.12,-000.01,24.8,04.9,0665.6,31.0
2020-10-07T02:48:00Z,00000380,00000600,-000.49,0000.24,0000.47,-000.14,-000.13,-000.35,-000.02,-000.10,-000.10,24.8,04.9,0665.7,31.0
2020-10-07T02:49:00Z,00000380,00000600,0000.02,-000.05,-000.03,0000.19,-000.17,0000.09,0000.15,0000.11,-000.02,24.8,04.9,0665.7,31.0
2020-10-07T02:50:00Z,00000380,00000600,0000.02,0000.45,-000.13,-000.21,0000.06,0000.15,-000.23,-000.15,-000.05,24.8,05.0,0665.6,31.0
2020-10-07T02:51:00Z,00000380,00000600,0000.62,0000.04,0000.20,0000.34,0000.18,-000.02,0000.04,0000.16,0000.08,24.8,05.0,0665.5,31.0
2020-10-07T02:52:00Z,00000380,00000600,0000.38,0000.12,0000.18,-000.35,-000.22,-000.40,0000.07,0000.01,0000.12,24.9,04.9,0665.6,31.1
2020-10-07T02:53:00Z,00000380,00000600,0000.71,0000.45,0000.06,0000.81,0000.34,0000.20,-000.06,0000.07,-000.09,24.9,04.8,0665.7,31.1
2020-10-07T02:54:00Z,00000380,00000600,0000.74,-000.16,0000.57,0000.31,0000.04,-000.28,0000.12,-000.01,0000.09,24.9,04.8,0665.6,31.1
2020-10-07T02:55:00Z,00000380,00000600,0000.95,0000.74,0000.25,0000.63,0000.25,-000.20,0000.10,0000.08,-000.03,24.9,04.8,0665.6,31.0
2020-10-07T02:56:00Z,00000380,00000600,0000.47,0000.63,0000.17,0000.09,0000.03,0000.07,0000.04,0000.10,0000.05,24.8,04.9,0665.5,31.0
2020-10-07T02:57:00Z,00000380,40000600,,,,,,,,,,24.9,05.2,0665.6,31.0
2020-10-07T02:58:00Z,00000380,60000600,,,,,,,,,,24.9,04.8,0664.9,31.0
2020-10-07T02:59:00Z,00000380,20000600,,,,,,,,,,25.0,04.8,0664.6,31.0
2020-10-07T03:00:00Z,00000380,20000600,,,,,,,,,,25.0,04.8,0664.6,31.0
2020-10-07T03:01:00Z,00000380,20000600,,,,,,,,,,25.0,04.8,0664.7,31.0
2020-10-07T03:02:00Z,00000380,20000600,,,,,,,,,,25.0,04.8,0664.7,31.0
2020-10-07T03:03:00Z,00000380,60000600,,,,,,,,,,25.0,04.8,0664.7,31.0
2020-10-07T03:04:00Z,00000380,40000600,0000.22,0000.51,0000.21,-000.09,0000.18,-000.27,-000.12,-000.24,-000.10,24.7,04.8,0665.6,31.0
2020-10-07T03:05:00Z,00000380,00000600,0001.31,0000.19,0000.24,-000.21,0000.24,0000.03,-000.13,0000.03,-000.04,24.7,04.9,0665.7,31.0
2020-10-07T03:06:00Z,00000380,00000600,0001.24,0000.07,0000.56,-000.49,0000.24,0000.09,0000.11,0000.01,0000.14,24.7,04.9,0665.6,31.0
2020-10-07T03:07:00Z,00000380,00000600,0000.31,0000.16,0000.38,-000.10,0000.07,0000.05,0000.02,0000.20,-000.02,24.8,04.9,0665.8,31.0
2020-10-07T03:08:00Z,00000380,00000600,0000.91,0000.08,0000.77,-000.63,0000.44,0000.36,0000.10,-000.02,-000.00,24.8,05.0,0665.6,31.1
2020-10-07T03:09:00Z,00000380,00000600,0001.18,0000.10,0000.39,0000.68,0000.04,-000.15,-000.10,0000.06,0000.07,24.8,05.0,0665.8,31.1
2020-10-07T03:10:00Z,00000380,00000600,0000.77,0000.41,-000.14,0000.38,0000.06,-000.33,0000.05,0000.00,-000.03,24.8,05.0,0665.9,31.1